timestamp,surface_pressure_avg,surface_temp_avg,battery_voltage,lat,long
2019-09-02 00:00:00+00:00,336.9229,18.0,12.97,47.84626,-54.09684
2019-09-02 00:10:00+00:00,348.7629,18.0,12.89,47.84626,-54.09684
2019-09-02 00:20:00+00:00,356.1348,18.0,12.97,47.84626,-54.09684
2019-09-02 00:30:00+00:00,359.2313,17.99,12.97,47.84626,-54.09684
2019-09-02 00:40:00+00:00,365.5129,17.99,12.97,47.84626,-54.09684
2019-09-02 00:50:00+00:00,371.1813,17.9,12.97,47.84626,-54.09684
2019-09-02 01:00:00+00:00,372.4096,17.9,12.89,47.84626,-54.09684
2019-09-02 01:10:00+00:00,372.2645,17.9,12.81,47.84626,-54.09684
2019-09-02 01:20:00+00:00,375.4263,17.9,12.97,47.84626,-54.09684
2019-09-02 01:30:00+00:00,375.2463,17.9,12.97,47.84626,-54.09684
2019-09-02 01:40:00+00:00,373.7845,17.9,12.97,47.84626,-54.09684
2019-09-02 01:50:00+00:00,373.4263,17.8,12.97,47.84626,-54.09684
2019-09-02 02:00:00+00:00,372.3346,17.82,12.89,47.84626,-54.09684
2019-09-02 02:10:00+00:00,368.4279,17.89,12.81,47.84626,-54.09684
2019-09-02 02:20:00+00:00,364.3396,17.88,12.89,47.84626,-54.09684
2019-09-02 02:30:00+00:00,361.598,17.8,12.89,47.84626,-54.09684
2019-09-02 02:40:00+00:00,354.8163,17.7,12.97,47.84626,-54.09684
2019-09-02 02:50:00+00:00,349.9763,17.66,12.97,47.84626,-54.09684
2019-09-02 03:00:00+00:00,348.4796,17.7,12.89,47.84626,-54.09684
2019-09-02 03:10:00+00:00,341.1379,17.7,12.81,47.84626,-54.09684
2019-09-02 03:20:00+00:00,330.5096,17.7,12.89,47.84626,-54.09684
2019-09-02 03:30:00+00:00,323.203,17.7,12.89,47.84626,-54.09684
2019-09-02 03:40:00+00:00,315.023,17.7,12.97,47.84626,-54.09684
2019-09-02 03:50:00+00:00,302.9363,17.73,12.97,47.84626,-54.09684
2019-09-02 04:00:00+00:00,290.478,17.8,12.89,47.84626,-54.09684
2019-09-02 04:10:00+00:00,280.6664,17.8,12.81,47.84626,-54.09684
2019-09-02 04:20:00+00:00,269.7081,17.8,12.89,47.84626,-54.09684
2019-09-02 04:30:00+00:00,258.2131,17.8,12.89,47.84626,-54.09684
2019-09-02 04:40:00+00:00,246.2581,17.8,12.89,47.84626,-54.09684
2019-09-02 04:50:00+00:00,235.2397,17.8,12.97,47.84626,-54.09684
2019-09-02 05:00:00+00:00,223.0447,17.8,12.89,47.84626,-54.09684
2019-09-02 05:10:00+00:00,210.6848,17.8,12.81,47.84626,-54.09684
2019-09-02 05:20:00+00:00,200.0331,17.8,12.89,47.84626,-54.09684
2019-09-02 05:30:00+00:00,190.6031,17.79,12.89,47.84626,-54.09684
2019-09-02 05:40:00+00:00,180.5265,17.77,12.89,47.84626,-54.09684
2019-09-02 05:50:00+00:00,172.7182,17.75,12.89,47.84626,-54.09684
2019-09-02 06:00:00+00:00,169.0248,17.75,12.81,47.84626,-54.09684
2019-09-02 06:10:00+00:00,161.8948,17.71,12.73,47.84626,-54.09684
2019-09-02 06:20:00+00:00,155.8198,17.7,12.89,47.84626,-54.09684
2019-09-02 06:30:00+00:00,154.3048,17.7,12.89,47.84626,-54.09684
2019-09-02 06:40:00+00:00,149.6565,17.7,12.89,47.84626,-54.09684
2019-09-02 06:50:00+00:00,147.3532,17.7,12.89,47.84626,-54.09684
2019-09-02 07:00:00+00:00,148.7082,17.7,12.81,47.84626,-54.09684
2019-09-02 07:10:00+00:00,146.4099,17.7,12.73,47.84626,-54.09684
2019-09-02 07:20:00+00:00,146.2282,17.7,12.81,47.84626,-54.09684
2019-09-02 07:30:00+00:00,150.7732,17.7,12.81,47.84626,-54.09684
2019-09-02 07:40:00+00:00,153.5848,17.7,12.89,47.84626,-54.09684
2019-09-02 07:50:00+00:00,156.9532,17.7,12.89,47.84626,-54.09684
2019-09-02 08:00:00+00:00,164.5632,17.7,12.81,47.84626,-54.09684
2019-09-02 08:10:00+00:00,167.6781,17.7,12.73,47.84626,-54.09684
2019-09-02 08:20:00+00:00,169.7432,17.7,12.81,47.84626,-54.09684
2019-09-02 08:30:00+00:00,175.5515,17.7,12.81,47.84626,-54.09684
2019-09-02 08:40:00+00:00,179.2281,17.7,12.81,47.84626,-54.09684
2019-09-02 08:50:00+00:00,179.6248,17.68,12.81,47.84626,-54.09684
2019-09-02 09:00:00+00:00,183.9265,17.6,12.81,47.84626,-54.09684
2019-09-02 09:10:00+00:00,190.2281,17.6,12.73,47.84626,-54.09684
2019-09-02 09:20:00+00:00,192.7698,17.6,12.89,47.84626,-54.09684
2019-09-02 09:30:00+00:00,195.5481,17.6,12.97,47.84626,-54.09684
2019-09-02 09:40:00+00:00,200.0098,17.57,13.29,47.84626,-54.09684
2019-09-02 09:50:00+00:00,204.5665,17.51,13.53,47.84626,-54.09684
2019-09-02 10:00:00+00:00,208.0715,17.5,13.68,47.84626,-54.09684
2019-09-02 10:10:00+00:00,213.1581,17.5,13.68,47.84626,-54.09684
2019-09-02 10:20:00+00:00,217.4297,17.4,14.08,47.84626,-54.09684
2019-09-02 10:30:00+00:00,223.5098,17.4,14.32,47.84626,-54.09684
2019-09-02 10:40:00+00:00,231.0331,17.38,15.27,47.84626,-54.09684
2019-09-02 10:50:00+00:00,236.3331,17.3,15.83,47.84626,-54.09684
2019-09-02 11:00:00+00:00,242.718,17.3,15.11,47.84626,-54.09684
2019-09-02 11:10:00+00:00,254.7648,17.29,14.88,47.84626,-54.09684
2019-09-02 11:20:00+00:00,266.8831,17.29,16.07,47.84626,-54.09684
2019-09-02 11:30:00+00:00,275.3065,17.29,15.75,47.84626,-54.09684
2019-09-02 11:40:00+00:00,284.8297,17.25,15.67,47.84626,-54.09684
2019-09-02 11:50:00+00:00,297.9313,17.23,14.8,47.84626,-54.09684
2019-09-02 12:00:00+00:00,309.4363,17.2,14.8,47.84626,-54.09684
2019-09-02 12:10:00+00:00,318.9947,17.19,14.56,47.84626,-54.09684
2019-09-02 12:20:00+00:00,330.6797,17.1,14.88,47.84626,-54.09684
2019-09-02 12:30:00+00:00,338.0913,17.1,14.72,47.84626,-54.09684
2019-09-02 12:40:00+00:00,342.8312,17.07,14.88,47.84626,-54.09684
2019-09-02 12:50:00+00:00,349.243,17.1,14.8,47.84626,-54.09684
2019-09-02 13:00:00+00:00,355.1514,16.74,14.64,47.84626,-54.09684
2019-09-02 13:10:00+00:00,358.438,16.8,14.64,47.84626,-54.09684
2019-09-02 13:20:00+00:00,362.6229,17.1,14.64,47.84626,-54.09684
2019-09-02 13:30:00+00:00,366.2896,16.6,14.8,47.84626,-54.09684
2019-09-02 13:40:00+00:00,367.4263,16.8,14.8,47.84626,-54.09684
2019-09-02 13:50:00+00:00,364.0495,17.14,14.72,47.84626,-54.09684
2019-09-02 14:00:00+00:00,364.0546,17.0,14.56,47.84626,-54.09684
2019-09-02 14:10:00+00:00,364.9529,16.69,14.56,47.84626,-54.09684
2019-09-02 14:20:00+00:00,361.053,17.17,14.64,47.84626,-54.09684
2019-09-02 14:30:00+00:00,356.8896,17.28,14.64,47.84626,-54.09684
2019-09-02 14:40:00+00:00,355.1396,16.73,14.64,47.84626,-54.09684
2019-09-02 14:50:00+00:00,349.283,17.0,14.64,47.84626,-54.09684
2019-09-02 15:00:00+00:00,342.6312,17.27,14.56,47.84626,-54.09684
2019-09-02 15:10:00+00:00,341.4529,17.3,14.48,47.84626,-54.09684
2019-09-02 15:20:00+00:00,338.4763,16.8,14.56,47.84626,-54.09684
2019-09-02 15:30:00+00:00,327.5947,16.87,14.56,47.84626,-54.09684
2019-09-02 15:40:00+00:00,320.0764,17.18,14.56,47.84626,-54.09684
2019-09-02 15:50:00+00:00,314.9763,17.19,14.56,47.84626,-54.09684
2019-09-02 16:00:00+00:00,304.1564,16.98,14.4,47.84626,-54.09684
2019-09-02 16:10:00+00:00,291.0681,17.0,14.48,47.84626,-54.09684
2019-09-02 16:20:00+00:00,282.3414,17.09,14.48,47.84626,-54.09684
2019-09-02 16:30:00+00:00,274.4431,17.19,14.48,47.84626,-54.09684
2019-09-02 16:40:00+00:00,264.8148,17.2,14.48,47.84626,-54.09684
2019-09-02 16:50:00+00:00,253.6831,16.88,14.48,47.84626,-54.09684
2019-09-02 17:00:00+00:00,243.4247,16.83,14.32,47.84626,-54.09684
2019-09-02 17:10:00+00:00,230.5631,17.0,14.32,47.84626,-54.09684
2019-09-02 17:20:00+00:00,216.6464,17.1,14.32,47.84626,-54.09684
2019-09-02 17:30:00+00:00,206.9381,17.17,14.32,47.84626,-54.09684
2019-09-02 17:40:00+00:00,198.8298,17.1,14.32,47.84626,-54.09684
2019-09-02 17:50:00+00:00,186.7815,17.0,14.32,47.84626,-54.09684
2019-09-02 18:00:00+00:00,178.7148,16.99,14.24,47.84626,-54.09684
2019-09-02 18:10:00+00:00,173.1948,16.99,14.08,47.84626,-54.09684
2019-09-02 18:20:00+00:00,164.6815,17.0,14.16,47.84626,-54.09684
2019-09-02 18:30:00+00:00,156.3348,17.0,14.08,47.84626,-54.09684
2019-09-02 18:40:00+00:00,152.9598,16.96,14.08,47.84626,-54.09684
2019-09-02 18:50:00+00:00,151.6982,16.9,14.08,47.84626,-54.09684
2019-09-02 19:00:00+00:00,150.0865,16.9,13.92,47.84626,-54.09684
2019-09-02 19:10:00+00:00,148.8465,16.89,13.84,47.84626,-54.09684
2019-09-02 19:20:00+00:00,145.7765,16.85,13.84,47.84626,-54.09684
2019-09-02 19:30:00+00:00,144.0965,16.83,13.84,47.84626,-54.09684
2019-09-02 19:40:00+00:00,147.2565,16.82,13.92,47.84626,-54.09684
2019-09-02 19:50:00+00:00,149.2765,16.82,13.92,47.84626,-54.09684
2019-09-02 20:00:00+00:00,146.7648,16.83,13.84,47.84626,-54.09684
2019-09-02 20:10:00+00:00,147.4732,16.89,13.68,47.84626,-54.09684
2019-09-02 20:20:00+00:00,155.0032,16.9,13.76,47.84626,-54.09684
2019-09-02 20:30:00+00:00,159.3932,16.9,13.76,47.84626,-54.09684
2019-09-02 20:40:00+00:00,161.9749,16.9,13.76,47.84626,-54.09684
2019-09-02 20:50:00+00:00,167.0615,16.9,13.76,47.84626,-54.09684
2019-09-02 21:00:00+00:00,171.7115,16.9,13.68,47.84626,-54.09684
2019-09-02 21:10:00+00:00,175.4148,16.9,13.53,47.84626,-54.09684
2019-09-02 21:20:00+00:00,176.1165,16.9,13.6,47.84626,-54.09684
2019-09-02 21:30:00+00:00,177.9515,16.9,13.53,47.84626,-54.09684
2019-09-02 21:40:00+00:00,185.5948,16.9,13.53,47.84626,-54.09684
2019-09-02 21:50:00+00:00,191.6531,16.9,13.44,47.84626,-54.09684
2019-09-02 22:00:00+00:00,191.5765,16.9,13.37,47.84626,-54.09684
2019-09-02 22:10:00+00:00,195.9247,16.9,13.21,47.84626,-54.09684
2019-09-02 22:20:00+00:00,206.0898,16.9,13.21,47.84626,-54.09684
2019-09-02 22:30:00+00:00,208.4565,16.9,13.21,47.84626,-54.09684
2019-09-02 22:40:00+00:00,208.8698,16.9,13.13,47.84626,-54.09684
2019-09-02 22:50:00+00:00,219.3198,16.9,13.13,47.84626,-54.09684
2019-09-02 23:00:00+00:00,229.7481,16.9,13.05,47.84626,-54.09684
2019-09-02 23:10:00+00:00,234.4798,16.91,12.97,47.84626,-54.09684
2019-09-02 23:20:00+00:00,240.2631,17.0,12.97,47.84626,-54.09684
2019-09-02 23:30:00+00:00,248.3398,17.09,12.97,47.84626,-54.09684
2019-09-02 23:40:00+00:00,257.2648,17.1,13.05,47.84626,-54.09684
2019-09-02 23:50:00+00:00,266.1997,17.15,13.05,47.84626,-54.09684
